Regional Weather Roundup
Issued by NWS

Home | Current Version | Previous Version | Text Only | Print | Product List | Glossary On
Versions: 1 2 3 4 5 6 7 8 9 10 11 12 13 14 15 16 17 18 19 20 21 22 23 24 25 26 27 28 29 30 31 32 33 34 35 36 37 38 39 40 41 42 43 44 45 46 47 48 49 50
000
ASUS43 KMKX 250121
RWRWI

WISCONSIN REGIONAL WEATHER ROUNDUP
NATIONAL WEATHER SERVICE MILWAUKEE/SULLIVAN WI
800 PM CDT FRI MAR 24 2017

NOTE: "FAIR" INDICATES FEW OR NO CLOUDS BELOW 12,000 FEET WITH NO
SIGNIFICANT WEATHER AND/OR OBSTRUCTIONS TO VISIBILITY.

WIZ001-002-006>008-014>016-023>028-250200-
NORTHWEST WISCONSIN

CITY           SKY/WX    TMP DP  RH WIND       PRES   REMARKS
SUPERIOR ARPT  CLOUDY    36  32  85 NE5       30.23R WCI  32
ASHLAND        CLOUDY    35  31  85 NE10      30.22R WCI  27
HAYWARD        CLOUDY    38  29  70 NE12      30.20R WCI  30
SIREN          CLOUDY    38  32  78 CALM      30.19R
CUMBERLAND     CLOUDY    36  32  87 NE10      30.16R WCI  28
RICE LAKE      CLOUDY    37  33  84 CALM      30.17R
CHETEK         CLOUDY    37  33  84 NE7       30.16R WCI  32
LADYSMITH      CLOUDY    38  34  86 N7        30.17R WCI  32
EAU CLAIRE     CLOUDY    39  35  86 N6        30.14R WCI  35
MENOMONIE      CLOUDY    40  35  82 NE9       30.15R WCI  34
NEW RICHMOND   CLOUDY    38  33  81 NE8       30.16R WCI  32
OSCEOLA        CLOUDY    39  33  80 NE13      30.19S WCI  31
$$

WIZ003>005-009-010-017-018-250200-
NORTH CENTRAL WISCONSIN

CITY           SKY/WX    TMP DP  RH WIND       PRES   REMARKS
MANITOWISH WTR CLOUDY    33  33 100 N6        30.16R WCI  27
ARBOR VITAE    CLOUDY    37  35  93 N3        30.14R
WOODRUFF       CLOUDY    37  35  93 N3        30.14R
RHINELANDER    CLOUDY    36  33  89 NE8       30.14R WCI  30
EAGLE RIVER    CLOUDY    34  33  96 NE8       30.13S WCI  27
LAND O LAKES   CLOUDY    34  34 100 NE5       30.15F FOG     WCI  30
PHILLIPS       CLOUDY    35  33  92 NE8       30.14R WCI  28
TOMAHAWK       CLOUDY    34  32  91 NE6       30.15R WCI  29
MEDFORD        CLOUDY    36  33  90 NE8       30.12R WCI  29
MERRILL        CLOUDY    36  35  95 NE7       30.13R WCI  30
$$

WIZ029-030-035-036-043>047-250200-
CENTRAL WISCONSIN

CITY           SKY/WX    TMP DP  RH WIND       PRES   REMARKS
WAUSAU         CLOUDY    37  35  92 NE3       30.10R
MOSINEE        CLOUDY    37  37 100 NE6       30.12R WCI  33
MARSHFIELD     CLOUDY    37  35  92 NE9       30.10R WCI  30
STEVENS POINT  DRIZZLE   35  35 100 NE3       30.12R
WAUPACA        LGT RAIN  38  36  91 NE7       30.11S WCI  33
WAUTOMA        LGT RAIN  37  35  92 NE7       30.11R WCI  32
WISC RAPIDS    CLOUDY    38  37  97 NE6       30.12R WCI  33
CAMP DOUGLAS   DRIZZLE   37  37 100 NE5       30.11R WCI  34
$$

WIZ011>013-019>022-031-037>040-048>050-250200-
NORTHEAST WISCONSIN

CITY           SKY/WX    TMP DP  RH WIND       PRES   REMARKS
ANTIGO         CLOUDY    34  33  96 NE9       30.11S WCI  26
SHAWANO        CLOUDY    38  36  92 NE6       30.13R WCI  33
OCONTO         CLOUDY    36  35  96 N5        30.15R WCI  32
STURGEON BAY   CLOUDY    35  34  96 N10       30.14R WCI  27
GREEN BAY      LGT RAIN  36  36 100 NE10      30.14R FOG     WCI  28
MANITOWOC      RAIN      36  34  92 N12       30.11R WCI  28
APPLETON       LGT RAIN  36  36 100 NE12      30.10R WCI  27
CLINTONVILLE   DRIZZLE   36  36 100 NE7       30.12R WCI  30
OSHKOSH        LGT RAIN  36  34  92 NE15      30.08S FOG     WCI  27
$$

WIZ032>034-041-042-053>061-250200-
SOUTHWEST WISCONSIN

CITY           SKY/WX    TMP DP  RH WIND       PRES   REMARKS
LA CROSSE      CLOUDY    43  38  82 NE10      30.10R
SPARTA         CLOUDY    39  38  94 NE7       30.12R WCI  34
VIROQUA        CLOUDY    38  37  99 NE15G22   30.06R WCI  29
BOSCOBEL       LGT RAIN  42  39  89 NE6       30.06R
PRAIRIE DU CHI LGT RAIN  42  40  90 N9        30.05R
PLATTEVILLE    CLOUDY    45  44  95 NE13      30.03R
$$

WIZ056-057-062-063-064-067-068-250200-
SOUTH CENTRAL WISCONSIN

CITY           SKY/WX    TMP DP  RH WIND       PRES   REMARKS
REEDSBURG      RAIN      37  37 100 NE5       30.09R WCI  33
BARABOO/DELLS  DRIZZLE   37  35  95 NE6       30.09R WCI  32
LONE ROCK      CLOUDY    41  37  86 NE10      30.07R FOG
MINERAL POINT  LGT RAIN  43  41  93 NE15      30.03R
MADISON        CLOUDY    40  35  83 N17       30.06R WCI  31
MIDDLETON      CLOUDY    41  38  87 NE12G21   30.07R
WATERTOWN      CLOUDY    40  40 100 NE9       30.05R WCI  34
MONROE         DRIZZLE   43  39  87 N21       30.01R
JANESVILLE     MOCLDY    46  39  76 NE13      30.01R
$$

WIZ051-052-058>065-066-070>072-250200-
SOUTHEAST WISCONSIN

CITY           SKY/WX    TMP DP  RH WIND       PRES   REMARKS
MILWAUKEE      CLOUDY    38  35  89 N15       30.05R WCI  29
WAUKESHA       CLOUDY    36  34  93 N12G23    30.08R WCI  27
MILWAUKEE/TIMM CLOUDY    37  32  81 NE14G22   30.07R WCI  29
RACINE         CLOUDY    38  35  89 N16G23    30.06S WCI  29
KENOSHA        CLOUDY    39  35  86 N12G24    30.06R WCI  32
FOND DU LAC    LGT RAIN  37  33  85 NE12      30.10R WCI  29
SHEBOYGAN      LGT RAIN  36  33  89 NE16      30.09R WCI  26
WEST BEND      CLOUDY    36  36 100 NE9       30.08R WCI  29
JUNEAU         CLOUDY    37  36  94 NE8       30.08S WCI  31
$$

LSZ147-162-250200-
LAKE SUPERIOR

STATION/POSITION TIME  TEMP    WIND        PRES    WAVE
                       AIR SEA DIR/SP/G            HT/PER
                 (UTC) (F)     (DEG/KT/KT) (MB)    (FT/S)
DEVILS ISLAND    0100   35      70/ 14/ 15 1024.6R
PORT WING        0030   37      60/  8/ 10 1023.0R
SAXON HARBOR     0040   35      60/ 11/ 14 1022.0F
$$

LMZ867-665-643>646-250200-
LAKE MICHIGAN

STATION/POSITION TIME  TEMP    WIND        PRES    WAVE
                       AIR SEA DIR/SP/G            HT/PER
                 (UTC) (F)     (DEG/KT/KT) (MB)    (FT/S)
CHAMBERS ISLAND  0040   33     360/ 10/ 11 1020.3R
NORTHPORT PIER   0040   34     350/  9/ 13 1020.7R
SISTER BAY       0036   35      20/  9/ 11   N/A
KEWAUNEE LAKESHO 0048   35      30/ 10/ 15 1019.5R
SHEBOYGAN LAKESH 0100   36      10/ 19/ 21 1019.6R
PORT WASHINGTON  0030   38      10/  9/ 18 1019.3R
MILWAUKEE LAKESH 0050   37      10/ 14/ 17   N/A
KENOSHA   LAKESH 0100   38     360/ 21/ 24 1017.9
$$

TC  - TEMPERATURE IN CELSIUS
VSB - VISIBILITY IN STATUTE MILES
WCI - WIND CHILL INDEX
HX  - HEAT INDEX




USA.gov is the U.S. government's official web portal to all federal, state and local government web resources and services.